Time,TemperatureF,DewpointF,PressureIn,WindDirection,WindDirectionDegrees,WindSpeedMPH,WindSpeedGustMPH,Humidity,HourlyPrecipIn,Conditions,Clouds,dailyrainin,SoftwareType,DateUTC
2013-04-05 08:00:00,36.9,27.7,29.91,SW,225,2.7,2.7,69,0.00,,,0.00,WUHU216HW,2013-04-05 12:00:00,
2013-04-05 08:05:00,37.1,27.6,29.90,SW,225,1.3,2.7,68,0.00,,,0.00,WUHU216HW,2013-04-05 12:05:00,
2013-04-05 08:10:00,37.4,27.9,29.90,SW,225,1.8,1.8,68,0.00,,,0.00,WUHU216HW,2013-04-05 12:10:00,
2013-04-05 08:15:00,37.4,27.9,29.90,SW,216,2.0,2.5,68,0.00,,,0.00,WUHU216HW,2013-04-05 12:15:00,
2013-04-05 08:20:00,37.8,28.2,29.90,SW,225,1.3,2.5,68,0.00,,,0.00,WUHU216HW,2013-04-05 12:20:00,
2013-04-05 08:25:00,38.0,28.4,29.90,SSW,203,2.7,3.1,68,0.00,,,0.00,WUHU216HW,2013-04-05 12:25:00,
2013-04-05 08:30:00,38.2,28.5,29.90,SSW,203,2.7,3.1,68,0.00,,,0.00,WUHU216HW,2013-04-05 12:30:00,
2013-04-05 08:35:00,38.3,28.3,29.90,SW,215,2.2,3.4,67,0.00,,,0.00,WUHU216HW,2013-04-05 12:35:00,
2013-04-05 08:40:00,38.3,28.3,29.89,SW,217,1.5,3.4,67,0.00,,,0.00,WUHU216HW,2013-04-05 12:40:00,
2013-04-05 08:45:00,38.5,28.4,29.89,SSW,203,2.0,2.9,67,0.00,,,0.00,WUHU216HW,2013-04-05 12:45:00,
2013-04-05 08:50:00,38.9,28.8,29.89,SSW,203,3.1,4.5,67,0.00,,,0.00,WUHU216HW,2013-04-05 12:50:00,
2013-04-05 08:55:00,39.2,29.1,29.89,SSW,198,1.9,4.5,67,0.00,,,0.00,WUHU216HW,2013-04-05 12:55:00,
2013-04-05 09:00:00,39.8,29.3,29.88,SSW,204,1.6,3.4,66,0.00,,,0.00,WUHU216HW,2013-04-05 13:00:00,
2013-04-05 09:05:00,40.3,29.8,29.88,SW,225,1.6,3.1,66,0.00,,,0.00,WUHU216HW,2013-04-05 13:05:00,
2013-04-05 09:10:00,40.7,30.2,29.88,SSW,203,2.7,3.1,66,0.00,,,0.00,WUHU216HW,2013-04-05 13:10:00,
2013-04-05 09:16:00,41.2,30.0,29.88,SSW,203,0.9,4.5,64,0.00,,,0.00,WUHU216HW,2013-04-05 13:16:00,
2013-04-05 09:21:00,41.4,29.3,29.88,SW,225,2.5,4.5,62,0.00,,,0.00,WUHU216HW,2013-04-05 13:21:00,
2013-04-05 09:26:00,41.6,29.5,29.87,SW,235,2.1,2.9,62,0.00,,,0.00,WUHU216HW,2013-04-05 13:26:00,
2013-04-05 09:31:00,42.1,29.6,29.87,SW,225,4.0,4.9,61,0.00,,,0.00,WUHU216HW,2013-04-05 13:31:00,
2013-04-05 09:37:00,43.0,30.1,29.86,SSW,207,2.8,4.9,60,0.00,,,0.00,WUHU216HW,2013-04-05 13:37:00,
2013-04-05 09:42:00,43.9,30.1,29.86,WNW,293,1.6,3.8,58,0.00,,,0.00,WUHU216HW,2013-04-05 13:42:00,
2013-04-05 09:47:00,44.3,30.0,29.86,WSW,248,1.6,2.0,57,0.00,,,0.00,WUHU216HW,2013-04-05 13:47:00,
2013-04-05 09:52:00,45.0,30.7,29.86,WNW,293,2.7,3.4,57,0.00,,,0.00,WUHU216HW,2013-04-05 13:52:00,
2013-04-05 09:57:00,45.5,28.9,29.86,NNW,338,1.8,3.4,52,0.00,,,0.00,WUHU216HW,2013-04-05 13:57:00,
2013-04-05 10:02:00,45.7,30.0,29.85,SW,236,2.2,3.4,54,0.00,,,0.00,WUHU216HW,2013-04-05 14:02:00,
2013-04-05 10:07:00,45.7,30.0,29.85,SW,225,1.6,3.4,54,0.00,,,0.00,WUHU216HW,2013-04-05 14:07:00,
2013-04-05 10:12:00,45.7,30.0,29.85,SW,217,1.0,2.7,54,0.00,,,0.00,WUHU216HW,2013-04-05 14:12:00,
2013-04-05 10:18:00,46.3,30.0,29.85,West,270,2.0,2.0,53,0.00,,,0.00,WUHU216HW,2013-04-05 14:18:00,
2013-04-05 10:23:00,47.2,29.9,29.85,ESE,105,1.7,4.0,51,0.00,,,0.00,WUHU216HW,2013-04-05 14:23:00,
2013-04-05 10:28:00,47.5,28.7,29.85,WNW,293,1.1,4.0,48,0.00,,,0.00,WUHU216HW,2013-04-05 14:28:00,
2013-04-05 10:33:00,47.5,28.7,29.85,NNE,23,4.0,4.0,48,0.00,,,0.00,WUHU216HW,2013-04-05 14:33:00,
2013-04-05 10:38:00,48.2,30.9,29.84,SSW,208,2.3,4.0,51,0.00,,,0.00,WUHU216HW,2013-04-05 14:38:00,
2013-04-05 10:43:00,49.0,29.5,29.84,WNW,282,1.7,3.4,47,0.00,,,0.00,WUHU216HW,2013-04-05 14:43:00,
2013-04-05 10:48:00,48.8,26.0,29.84,NNE,23,2.5,4.0,41,0.00,,,0.00,WUHU216HW,2013-04-05 14:48:00,
2013-04-05 10:53:00,49.0,29.0,29.84,SW,225,2.0,4.0,46,0.00,,,0.00,WUHU216HW,2013-04-05 14:53:00,
2013-04-05 10:58:00,49.9,30.3,29.84,WNW,293,1.6,4.5,47,0.00,,,0.00,WUHU216HW,2013-04-05 14:58:00,
2013-04-05 11:03:00,50.4,30.3,29.83,WSW,258,2.5,4.5,46,0.00,,,0.00,WUHU216HW,2013-04-05 15:03:00,
2013-04-05 11:08:00,50.9,30.8,29.83,WNW,293,1.1,3.8,46,0.00,,,0.00,WUHU216HW,2013-04-05 15:08:00,
2013-04-05 11:13:00,50.9,29.2,29.83,ENE,70,1.9,3.4,43,0.00,,,0.00,WUHU216HW,2013-04-05 15:13:00,
2013-04-05 11:18:00,51.5,29.1,29.83,North,0,2.5,2.9,42,0.00,,,0.00,WUHU216HW,2013-04-05 15:18:00,
2013-04-05 11:23:00,51.8,30.5,29.83,WSW,239,1.1,2.9,44,0.00,,,0.00,WUHU216HW,2013-04-05 15:23:00,
2013-04-05 11:28:00,52.0,30.7,29.82,SW,235,1.1,2.7,44,0.00,,,0.00,WUHU216HW,2013-04-05 15:28:00,
2013-04-05 11:33:00,52.0,26.4,29.82,East,87,2.9,4.5,37,0.00,,,0.00,WUHU216HW,2013-04-05 15:33:00,
2013-04-05 11:38:00,51.5,25.9,29.81,NE,45,1.3,4.5,37,0.00,,,0.00,WUHU216HW,2013-04-05 15:38:00,
2013-04-05 11:43:00,51.8,27.5,29.81,WNW,293,1.6,4.0,39,0.00,,,0.00,WUHU216HW,2013-04-05 15:43:00,
2013-04-05 11:48:00,52.4,28.1,29.81,ESE,102,1.4,3.4,39,0.00,,,0.00,WUHU216HW,2013-04-05 15:48:00,
2013-04-05 11:53:00,52.7,28.4,29.81,SSE,162,1.0,3.4,39,0.00,,,0.00,WUHU216HW,2013-04-05 15:53:00,
2013-04-05 11:58:00,52.9,23.8,29.81,NNE,31,2.1,2.7,32,0.00,,,0.00,WUHU216HW,2013-04-05 15:58:00,
2013-04-05 12:03:00,53.5,24.2,29.80,ENE,68,2.9,4.7,32,0.00,,,0.00,WUHU216HW,2013-04-05 16:03:00,
2013-04-05 12:08:00,53.6,25.7,29.80,East,90,2.2,4.7,34,0.00,,,0.00,WUHU216HW,2013-04-05 16:08:00,
2013-04-05 12:13:00,53.8,26.7,29.79,WSW,251,1.7,4.3,35,0.00,,,0.00,WUHU216HW,2013-04-05 16:13:00,
2013-04-05 12:18:00,54.4,27.7,29.79,SSE,158,1.3,3.1,36,0.00,,,0.00,WUHU216HW,2013-04-05 16:18:00,
2013-04-05 12:23:00,54.9,25.5,29.78,East,82,1.9,4.3,32,0.00,,,0.00,WUHU216HW,2013-04-05 16:23:00,
2013-04-05 12:28:00,54.7,26.0,29.78,South,180,2.7,4.3,33,0.00,,,0.00,WUHU216HW,2013-04-05 16:28:00,
2013-04-05 12:33:00,54.9,24.0,29.78,ENE,74,1.4,3.4,30,0.00,,,0.00,WUHU216HW,2013-04-05 16:33:00,
2013-04-05 12:38:00,55.3,23.4,29.77,ESE,113,2.5,3.8,29,0.00,,,0.00,WUHU216HW,2013-04-05 16:38:00,
2013-04-05 12:43:00,55.8,25.5,29.77,West,277,2.5,4.9,31,0.00,,,0.00,WUHU216HW,2013-04-05 16:43:00,
2013-04-05 12:48:00,55.8,23.0,29.77,South,180,2.9,4.9,28,0.00,,,0.00,WUHU216HW,2013-04-05 16:48:00,
2013-04-05 12:53:00,55.8,22.0,29.76,East,83,2.8,4.3,27,0.00,,,0.00,WUHU216HW,2013-04-05 16:53:00,
2013-04-05 12:58:00,55.8,23.9,29.75,WSW,248,1.8,4.3,29,0.00,,,0.00,WUHU216HW,2013-04-05 16:58:00,
2013-04-05 13:03:00,56.3,24.3,29.75,WNW,293,2.0,4.7,29,0.00,,,0.00,WUHU216HW,2013-04-05 17:03:00,
2013-04-05 13:08:00,56.7,20.9,29.75,NE,49,4.4,6.5,25,0.00,,,0.00,WUHU216HW,2013-04-05 17:08:00,
2013-04-05 13:13:00,56.7,20.9,29.75,NNE,21,1.0,6.5,25,0.00,,,0.00,WUHU216HW,2013-04-05 17:13:00,
2013-04-05 13:18:00,57.2,21.3,29.74,North,0,2.0,4.7,25,0.00,,,0.00,WUHU216HW,2013-04-05 17:18:00,
2013-04-05 13:23:00,57.2,22.3,29.74,WSW,256,2.5,5.6,26,0.00,,,0.00,WUHU216HW,2013-04-05 17:23:00,
2013-04-05 13:28:00,57.8,21.8,29.73,East,85,3.1,5.6,25,0.00,,,0.00,WUHU216HW,2013-04-05 17:28:00,
2013-04-05 13:33:00,57.8,20.8,29.73,NNW,334,2.0,5.4,24,0.00,,,0.00,WUHU216HW,2013-04-05 17:33:00,
2013-04-05 13:38:00,58.0,23.9,29.73,ESE,113,3.1,3.1,27,0.00,,,0.00,WUHU216HW,2013-04-05 17:38:00,
2013-04-05 13:43:00,58.3,21.2,29.72,WSW,253,1.4,4.0,24,0.00,,,0.00,WUHU216HW,2013-04-05 17:43:00,
2013-04-05 13:48:00,58.5,22.4,29.72,ENE,68,3.8,4.0,25,0.00,,,0.00,WUHU216HW,2013-04-05 17:48:00,
2013-04-05 13:53:00,58.7,20.6,29.72,ENE,64,2.0,5.6,23,0.00,,,0.00,WUHU216HW,2013-04-05 17:53:00,
2013-04-05 13:58:00,58.3,20.4,29.72,NE,37,2.5,5.6,23,0.00,,,0.00,WUHU216HW,2013-04-05 17:58:00,
2013-04-05 14:03:00,58.5,21.4,29.72,South,180,2.5,3.8,24,0.00,,,0.00,WUHU216HW,2013-04-05 18:03:00,
2013-04-05 14:08:00,58.5,21.4,29.72,SE,135,3.1,6.5,24,0.00,,,0.00,WUHU216HW,2013-04-05 18:08:00,
2013-04-05 14:13:00,58.3,21.2,29.71,NNW,331,3.0,6.5,24,0.00,,,0.00,WUHU216HW,2013-04-05 18:13:00,
2013-04-05 14:18:00,58.5,22.4,29.71,NW,315,4.0,5.4,25,0.00,,,0.00,WUHU216HW,2013-04-05 18:18:00,
2013-04-05 14:24:00,58.5,25.3,29.71,WSW,252,1.9,4.0,28,0.00,,,0.00,WUHU216HW,2013-04-05 18:24:00,
2013-04-05 14:29:00,58.7,25.5,29.71,SSW,203,1.8,3.6,28,0.00,,,0.00,WUHU216HW,2013-04-05 18:29:00,
2013-04-05 14:34:00,58.7,24.5,29.71,NNW,337,1.3,5.4,27,0.00,,,0.00,WUHU216HW,2013-04-05 18:34:00,
2013-04-05 14:39:00,58.7,24.5,29.71,NW,313,1.4,5.4,27,0.00,,,0.00,WUHU216HW,2013-04-05 18:39:00,
2013-04-05 14:44:00,58.7,25.5,29.71,SSW,213,1.7,4.3,28,0.00,,,0.00,WUHU216HW,2013-04-05 18:44:00,
2013-04-05 14:49:00,58.9,22.7,29.71,NNE,13,3.4,6.5,25,0.00,,,0.00,WUHU216HW,2013-04-05 18:49:00,
2013-04-05 14:54:00,58.7,23.5,29.71,North,350,1.8,6.5,26,0.00,,,0.00,WUHU216HW,2013-04-05 18:54:00,
2013-04-05 14:59:00,58.5,25.3,29.71,NW,315,2.7,3.4,28,0.00,,,0.00,WUHU216HW,2013-04-05 18:59:00,
2013-04-05 15:04:00,58.5,24.3,29.71,North,355,1.7,5.1,27,0.00,,,0.00,WUHU216HW,2013-04-05 19:04:00,
2013-04-05 15:09:00,58.1,24.0,29.71,NW,315,1.6,5.1,27,0.00,,,0.00,WUHU216HW,2013-04-05 19:09:00,
2013-04-05 15:14:00,58.1,24.0,29.71,West,281,3.2,5.4,27,0.00,,,0.00,WUHU216HW,2013-04-05 19:14:00,
2013-04-05 15:19:00,58.1,24.0,29.71,NNW,338,1.8,5.4,27,0.00,,,0.00,WUHU216HW,2013-04-05 19:19:00,
2013-04-05 15:24:00,58.0,24.9,29.71,WSW,248,1.1,3.1,28,0.00,,,0.00,WUHU216HW,2013-04-05 19:24:00,
2013-04-05 15:29:00,58.0,24.9,29.72,SSW,203,4.7,4.7,28,0.00,,,0.00,WUHU216HW,2013-04-05 19:29:00,
2013-04-05 15:35:00,57.8,24.7,29.72,WNW,302,1.7,4.7,28,0.00,,,0.00,WUHU216HW,2013-04-05 19:35:00,
2013-04-05 15:40:00,57.8,24.7,29.72,NW,315,2.5,4.7,28,0.00,,,0.00,WUHU216HW,2013-04-05 19:40:00,
2013-04-05 15:45:00,57.2,24.2,29.71,North,5,1.8,4.5,28,0.00,,,0.00,WUHU216HW,2013-04-05 19:45:00,
2013-04-05 15:50:00,57.2,24.2,29.71,ESE,113,2.9,4.5,28,0.00,,,0.00,WUHU216HW,2013-04-05 19:50:00,
2013-04-05 15:55:00,57.1,24.0,29.71,WNW,293,2.2,4.7,28,0.00,,,0.00,WUHU216HW,2013-04-05 19:55:00,
2013-04-05 16:00:00,56.9,23.9,29.71,NNW,338,2.9,5.6,28,0.00,,,0.00,WUHU216HW,2013-04-05 20:00:00,
2013-04-05 16:05:00,56.9,24.9,29.71,NE,45,1.8,5.6,29,0.00,,,0.00,WUHU216HW,2013-04-05 20:05:00,
2013-04-05 16:10:00,56.7,24.7,29.72,NNW,347,2.1,3.6,29,0.00,,,0.00,WUHU216HW,2013-04-05 20:10:00,
2013-04-05 16:15:00,56.5,24.5,29.72,West,270,2.0,3.6,29,0.00,,,0.00,WUHU216HW,2013-04-05 20:15:00,
2013-04-05 16:20:00,56.5,24.5,29.71,South,176,3.5,4.7,29,0.00,,,0.00,WUHU216HW,2013-04-05 20:20:00,
2013-04-05 16:25:00,56.5,24.5,29.71,West,260,2.1,4.7,29,0.00,,,0.00,WUHU216HW,2013-04-05 20:25:00,
2013-04-05 16:30:00,56.5,25.5,29.71,NE,37,1.3,3.8,30,0.00,,,0.00,WUHU216HW,2013-04-05 20:30:00,
2013-04-05 16:35:00,57.1,25.9,29.71,North,0,1.5,3.4,30,0.00,,,0.00,WUHU216HW,2013-04-05 20:35:00,
2013-04-05 16:40:00,58.0,24.9,29.71,South,186,1.3,2.5,28,0.00,,,0.00,WUHU216HW,2013-04-05 20:40:00,
2013-04-05 16:45:00,58.1,25.9,29.71,WNW,299,0.8,2.5,29,0.00,,,0.00,WUHU216HW,2013-04-05 20:45:00,
2013-04-05 16:50:00,57.8,24.7,29.72,West,278,1.8,2.9,28,0.00,,,0.00,WUHU216HW,2013-04-05 20:50:00,
2013-04-05 16:55:00,57.1,25.0,29.72,WNW,292,1.5,3.6,29,0.00,,,0.00,WUHU216HW,2013-04-05 20:55:00,
2013-04-05 17:00:00,56.5,22.6,29.71,WNW,292,2.6,6.3,27,0.00,,,0.00,WUHU216HW,2013-04-05 21:00:00,
2013-04-05 17:05:00,55.8,23.9,29.72,West,278,2.5,6.3,29,0.00,,,0.00,WUHU216HW,2013-04-05 21:05:00,
2013-04-05 17:10:00,55.6,23.7,29.73,WNW,293,2.5,4.7,29,0.00,,,0.00,WUHU216HW,2013-04-05 21:10:00,
2013-04-05 17:15:00,55.1,22.3,29.73,West,270,2.5,5.8,28,0.00,,,0.00,WUHU216HW,2013-04-05 21:15:00,
2013-04-05 17:20:00,54.7,22.1,29.73,NE,50,1.3,5.8,28,0.00,,,0.00,WUHU216HW,2013-04-05 21:20:00,
2013-04-05 17:25:00,54.4,22.7,29.73,NE,40,2.0,4.5,29,0.00,,,0.00,WUHU216HW,2013-04-05 21:25:00,
2013-04-05 17:30:00,54.2,23.5,29.73,NNE,23,1.8,3.1,30,0.00,,,0.00,WUHU216HW,2013-04-05 21:30:00,
2013-04-05 17:35:00,54.0,24.0,29.74,SW,225,2.5,2.5,31,0.00,,,0.00,WUHU216HW,2013-04-05 21:35:00,
2013-04-05 17:40:00,53.6,23.8,29.74,East,81,1.8,3.4,31,0.00,,,0.00,WUHU216HW,2013-04-05 21:40:00,
2013-04-05 17:45:00,53.1,24.0,29.74,NNW,338,3.8,3.8,32,0.00,,,0.00,WUHU216HW,2013-04-05 21:45:00,
2013-04-05 17:50:00,52.7,24.3,29.75,WNW,296,1.6,4.7,33,0.00,,,0.00,WUHU216HW,2013-04-05 21:50:00,
2013-04-05 17:56:00,52.9,25.1,29.75,NW,315,1.1,4.7,34,0.00,,,0.00,WUHU216HW,2013-04-05 21:56:00,
2013-04-05 18:01:00,53.8,24.6,29.76,ENE,78,2.5,4.5,32,0.00,,,0.00,WUHU216HW,2013-04-05 22:01:00,
2013-04-05 18:06:00,54.0,24.7,29.76,NW,306,1.9,4.5,32,0.00,,,0.00,WUHU216HW,2013-04-05 22:06:00,
2013-04-05 18:10:00,54.4,25.0,29.77,East,98,1.1,3.4,32,0.00,,,0.00,WUHU216HW,2013-04-05 22:10:00,
2013-04-05 18:15:00,54.2,24.1,29.77,ESE,113,1.4,6.7,31,0.00,,,0.00,WUHU216HW,2013-04-05 22:15:00,
2013-04-05 18:20:00,53.1,23.2,29.77,ENE,68,3.1,6.7,31,0.00,,,0.00,WUHU216HW,2013-04-05 22:20:00,
2013-04-05 18:26:00,52.0,23.0,29.78,NNW,338,1.8,3.1,32,0.00,,,0.00,WUHU216HW,2013-04-05 22:26:00,
2013-04-05 18:30:00,51.1,22.9,29.78,WSW,248,1.8,7.2,33,0.00,,,0.00,WUHU216HW,2013-04-05 22:30:00,
2013-04-05 18:35:00,50.6,22.3,29.79,ENE,68,1.8,7.2,33,0.00,,,0.00,WUHU216HW,2013-04-05 22:35:00,
2013-04-05 18:40:00,50.0,21.9,29.79,NW,326,1.5,4.7,33,0.00,,,0.00,WUHU216HW,2013-04-05 22:40:00,
2013-04-05 18:46:00,49.5,22.1,29.80,NW,315,1.8,4.7,34,0.00,,,0.00,WUHU216HW,2013-04-05 22:46:00,
2013-04-05 18:51:00,49.0,21.6,29.80,WSW,248,1.3,3.4,34,0.00,,,0.00,WUHU216HW,2013-04-05 22:51:00,
2013-04-05 18:56:00,48.6,21.3,29.80,NW,325,1.0,3.4,34,0.00,,,0.00,WUHU216HW,2013-04-05 22:56:00,
2013-04-05 19:01:00,48.1,21.5,29.81,North,9,1.3,3.4,35,0.00,,,0.00,WUHU216HW,2013-04-05 23:01:00,
2013-04-05 19:06:00,47.7,21.9,29.81,SSW,193,1.7,3.4,36,0.00,,,0.00,WUHU216HW,2013-04-05 23:06:00,
2013-04-05 19:11:00,47.3,21.5,29.81,ENE,68,1.8,3.4,36,0.00,,,0.00,WUHU216HW,2013-04-05 23:11:00,
2013-04-05 19:16:00,47.0,20.5,29.81,NW,324,1.8,4.0,35,0.00,,,0.00,WUHU216HW,2013-04-05 23:16:00,
2013-04-05 19:21:00,46.6,20.9,29.81,NNW,332,0.7,6.0,36,0.00,,,0.00,WUHU216HW,2013-04-05 23:21:00,
2013-04-05 19:26:00,46.1,20.4,29.82,ESE,103,1.3,6.0,36,0.00,,,0.00,WUHU216HW,2013-04-05 23:26:00,
2013-04-05 19:31:00,45.7,20.8,29.82,WSW,248,2.0,3.4,37,0.00,,,0.00,WUHU216HW,2013-04-05 23:31:00,
2013-04-05 19:36:00,45.5,20.6,29.82,East,90,2.0,3.4,37,0.00,,,0.00,WUHU216HW,2013-04-05 23:36:00,
2013-04-05 19:41:00,45.0,20.8,29.83,NW,324,1.9,3.4,38,0.00,,,0.00,WUHU216HW,2013-04-05 23:41:00,
2013-04-05 19:45:00,44.6,20.4,29.83,SE,135,2.0,3.4,38,0.00,,,0.00,WUHU216HW,2013-04-05 23:45:00,
2013-04-05 19:50:00,44.3,20.8,29.84,WSW,243,2.6,4.7,39,0.00,,,0.00,WUHU216HW,2013-04-05 23:50:00,
2013-04-05 19:55:00,43.9,21.2,29.84,West,270,4.5,5.1,40,0.00,,,0.00,WUHU216HW,2013-04-05 23:55:00,
2013-04-05 20:00:00,43.6,20.8,29.84,NNW,344,2.3,5.6,40,0.00,,,0.00,WUHU216HW,2013-04-06 00:00:00,
2013-04-05 20:05:00,43.2,21.6,29.85,NNE,22,2.6,5.6,42,0.00,,,0.00,WUHU216HW,2013-04-06 00:05:00,
2013-04-05 20:10:00,42.8,20.7,29.85,NW,315,1.0,4.9,41,0.00,,,0.00,WUHU216HW,2013-04-06 00:10:00,
2013-04-05 20:15:00,42.5,21.4,29.86,NW,315,2.7,5.4,43,0.00,,,0.00,WUHU216HW,2013-04-06 00:15:00,
2013-04-05 20:20:00,42.3,21.2,29.86,West,270,3.1,5.4,43,0.00,,,0.00,WUHU216HW,2013-04-06 00:20:00,
2013-04-05 20:25:00,41.9,21.0,29.86,NW,313,2.0,3.8,43,0.00,,,0.00,WUHU216HW,2013-04-06 00:25:00,
2013-04-05 20:30:00,41.8,20.8,29.87,SE,135,2.2,3.8,43,0.00,,,0.00,WUHU216HW,2013-04-06 00:30:00,
2013-04-05 20:35:00,41.4,20.4,29.87,West,265,2.1,4.7,43,0.00,,,0.00,WUHU216HW,2013-04-06 00:35:00,
2013-04-05 20:40:00,41.4,20.4,29.87,West,270,0.7,4.7,43,0.00,,,0.00,WUHU216HW,2013-04-06 00:40:00,
2013-04-05 20:46:00,41.0,20.1,29.87,NNE,23,1.3,3.4,43,0.00,,,0.00,WUHU216HW,2013-04-06 00:46:00,
2013-04-05 20:51:00,40.9,20.4,29.88,SSE,158,5.1,5.1,44,0.00,,,0.00,WUHU216HW,2013-04-06 00:51:00,
2013-04-05 20:56:00,40.7,19.8,29.88,WSW,248,0.7,5.1,43,0.00,,,0.00,WUHU216HW,2013-04-06 00:56:00,
2013-04-05 21:00:00,40.5,19.6,29.88,WNW,293,2.0,5.1,43,0.00,,,0.00,WUHU216HW,2013-04-06 01:00:00,
2013-04-05 21:05:00,40.3,20.0,29.88,NW,315,1.1,2.0,44,0.00,,,0.00,WUHU216HW,2013-04-06 01:05:00,
2013-04-05 21:10:00,40.3,20.0,29.88,NE,37,1.0,2.5,44,0.00,,,0.00,WUHU216HW,2013-04-06 01:10:00,
2013-04-05 21:15:00,40.0,19.6,29.89,NW,315,0.9,2.5,44,0.00,,,0.00,WUHU216HW,2013-04-06 01:15:00,
2013-04-05 21:20:00,40.0,19.6,29.89,NW,323,1.4,9.8,44,0.00,,,0.00,WUHU216HW,2013-04-06 01:20:00,
2013-04-05 21:25:00,39.8,19.5,29.89,North,0,0.7,9.8,44,0.00,,,0.00,WUHU216HW,2013-04-06 01:25:00,
2013-04-05 21:31:00,39.6,19.9,29.89,WNW,294,0.9,4.0,45,0.00,,,0.00,WUHU216HW,2013-04-06 01:31:00,
2013-04-05 21:36:00,39.6,19.9,29.89,NNE,23,1.1,4.0,45,0.00,,,0.00,WUHU216HW,2013-04-06 01:36:00,
2013-04-05 21:41:00,39.4,19.7,29.89,NNW,346,2.4,4.7,45,0.00,,,0.00,WUHU216HW,2013-04-06 01:41:00,
2013-04-05 21:46:00,39.4,20.7,29.90,NE,45,2.2,4.7,47,0.00,,,0.00,WUHU216HW,2013-04-06 01:46:00,
2013-04-05 21:51:00,39.2,20.1,29.90,NW,307,0.8,3.1,46,0.00,,,0.00,WUHU216HW,2013-04-06 01:51:00,
2013-04-05 21:56:00,39.1,20.4,29.91,NNE,16,0.7,2.2,47,0.00,,,0.00,WUHU216HW,2013-04-06 01:56:00,
2013-04-05 22:01:00,38.9,20.8,29.91,West,270,1.1,2.2,48,0.00,,,0.00,WUHU216HW,2013-04-06 02:01:00,
2013-04-05 22:06:00,38.5,20.4,29.91,WSW,248,2.5,4.0,48,0.00,,,0.00,WUHU216HW,2013-04-06 02:06:00,
2013-04-05 22:11:00,38.5,21.0,29.91,NW,315,0.9,4.0,49,0.00,,,0.00,WUHU216HW,2013-04-06 02:11:00,
2013-04-05 22:16:00,38.3,21.3,29.92,NNW,334,1.4,4.0,50,0.00,,,0.00,WUHU216HW,2013-04-06 02:16:00,
2013-04-05 22:22:00,38.2,21.2,29.91,North,0,1.8,2.9,50,0.00,,,0.00,WUHU216HW,2013-04-06 02:22:00,
2013-04-05 22:27:00,38.2,20.6,29.92,NW,324,0.6,2.9,49,0.00,,,0.00,WUHU216HW,2013-04-06 02:27:00,
2013-04-05 22:32:00,38.0,21.4,29.92,West,279,3.5,4.7,51,0.00,,,0.00,WUHU216HW,2013-04-06 02:32:00,
2013-04-05 22:37:00,37.8,21.2,29.92,WNW,299,1.7,5.1,51,0.00,,,0.00,WUHU216HW,2013-04-06 02:37:00,
2013-04-05 22:42:00,37.8,21.7,29.92,SSE,158,2.5,5.1,52,0.00,,,0.00,WUHU216HW,2013-04-06 02:42:00,
2013-04-05 22:47:00,37.6,21.5,29.92,NW,315,1.1,3.4,52,0.00,,,0.00,WUHU216HW,2013-04-06 02:47:00,
2013-04-05 22:52:00,37.4,21.8,29.92,NNW,331,1.1,3.4,53,0.00,,,0.00,WUHU216HW,2013-04-06 02:52:00,
2013-04-05 22:57:00,37.3,21.7,29.92,NNW,338,1.1,3.4,53,0.00,,,0.00,WUHU216HW,2013-04-06 02:57:00,
2013-04-05 23:02:00,37.1,21.5,29.93,West,270,1.6,3.4,53,0.00,,,0.00,WUHU216HW,2013-04-06 03:02:00,
2013-04-05 23:07:00,37.1,22.0,29.92,NNW,338,0.9,4.7,54,0.00,,,0.00,WUHU216HW,2013-04-06 03:07:00,
2013-04-05 23:12:00,36.7,22.1,29.92,SW,225,2.9,4.7,55,0.00,,,0.00,WUHU216HW,2013-04-06 03:12:00,
2013-04-05 23:17:00,36.5,22.3,29.93,NW,319,1.0,2.9,56,0.00,,,0.00,WUHU216HW,2013-04-06 03:17:00,
2013-04-05 23:22:00,36.4,22.1,29.93,WNW,288,1.2,2.7,56,0.00,,,0.00,WUHU216HW,2013-04-06 03:22:00,
2013-04-05 23:28:00,36.4,22.1,29.93,NW,326,1.5,3.6,56,0.00,,,0.00,WUHU216HW,2013-04-06 03:28:00,
2013-04-05 23:33:00,36.2,22.4,29.93,WSW,248,1.1,3.6,57,0.00,,,0.00,WUHU216HW,2013-04-06 03:33:00,
2013-04-05 23:38:00,36.0,22.2,29.93,NNW,338,1.1,2.0,57,0.00,,,0.00,WUHU216HW,2013-04-06 03:38:00,
2013-04-05 23:43:00,36.0,22.7,29.93,West,270,2.9,3.4,58,0.00,,,0.00,WUHU216HW,2013-04-06 03:43:00,
2013-04-05 23:48:00,35.8,22.5,29.94,WNW,287,1.8,3.4,58,0.00,,,0.00,WUHU216HW,2013-04-06 03:48:00,
2013-04-05 23:53:00,35.6,22.3,29.94,NW,326,1.1,3.4,58,0.00,,,0.00,WUHU216HW,2013-04-06 03:53:00,
2013-04-05 23:58:00,35.6,22.0,29.94,WNW,293,1.8,2.7,57,0.00,,,0.00,WUHU216HW,2013-04-06 03:58:00,